Weather History for Olive Branch, MS

Change the Weather History Date:

Monday, May 6, 2013

  Actual Average (KMEM) Record (KMEM)
Temperature  
Mean Temperature 56 °F 69 °F  
Max Temperature 62 °F 79 °F 95 °F (1952)
Min Temperature 50 °F 59 °F 41 °F (1944)
Degree Days  
Heating Degree Days 9 1  
Month to date heating degree days 7  
Since 1 July heating degree days 2952  
Cooling Degree Days 0 5  
Month to date cooling degree days 27  
Year to date cooling degree days 122  
Growing Degree Days 6 (Base 50)    
Moisture  
Dew Point 54 °F    
Average Humidity 98    
Maximum Humidity 100    
Minimum Humidity 82    
Precipitation  
Precipitation 0.00 in 0.19 in 3.07 in (1907)
Month to date precipitation 1.13  
Year to date precipitation 20.16  
Snow  
Snow 0.00 in 0.00 in - ()
Month to date snowfall 0.0  
Since 1 July snowfall 3.8  
Snow Depth -    
Sea Level Pressure  
Sea Level Pressure 29.91 in    
Wind  
Wind Speed 6 mph (WNW)    
Max Wind Speed 14 mph    
Max Gust Speed -    
Visibility 9 miles    
Events Rain    
T = Trace of Precipitation, MM = Missing Value Source: NWS Daily Summary

Daily Weather History Graph

Daily Weather History Graph

Search for Another Location

Airport:

Trip Planner

Search our weather history database for the weather conditions in past years. The results will help you decide how hot, cold, wet, or windy it might be!

Date:

Astronomy

May. 06, 2013 Rise Set
Actual Time 6:03 AM CDT 7:48 PM CDT
Civil Twilight 5:35 AM CDT 8:16 PM CDT
Nautical Twilight 5:02 AM CDT 8:49 PM CDT
Astronomical Twilight 4:27 AM CDT 9:24 PM CDT
Moon 3:57 AM CDT (5/6) 4:55 PM CDT (5/6)
Length of Visible Light 14h 40m
Length of Day
13h 45m
Waning Crescent, 11% of the Moon is Illuminated
May 6
Waning Crescent
May 9
New
May 17
First Quarter
May 24
Full
May 31
Last Quarter

Hourly Weather History & Observations

Time (CDT) Temp. Dew Point Humidity Pressure Visibility Wind Dir Wind Speed Gust Speed Precip Events Conditions
12:15 AM 50.0 °F 50.0 °F 100% 29.90 in 9.0 mi West 6.9 mph - 0.00 in   Overcast
12:35 AM 51.8 °F 51.8 °F 100% 29.90 in 8.0 mi West 5.8 mph - 0.00 in   Overcast
12:55 AM 51.8 °F 51.8 °F 100% 29.90 in 10.0 mi West 5.8 mph - 0.00 in   Overcast
1:15 AM 51.8 °F 51.8 °F 100% 29.90 in 9.0 mi West 5.8 mph - 0.00 in   Overcast
1:35 AM 51.8 °F 51.8 °F 100% 29.90 in 8.0 mi West 4.6 mph - 0.00 in   Overcast
1:55 AM 51.8 °F 51.8 °F 100% 29.89 in 10.0 mi West 6.9 mph - 0.00 in   Overcast
2:15 AM 51.8 °F 51.8 °F 100% 29.88 in 10.0 mi WNW 10.4 mph - 0.00 in   Overcast
2:35 AM 51.8 °F 51.8 °F 100% 29.88 in 9.0 mi WNW 6.9 mph - 0.00 in   Overcast
2:55 AM 51.8 °F 51.8 °F 100% 29.87 in 10.0 mi West 5.8 mph - 0.00 in   Overcast
3:15 AM 51.8 °F 51.8 °F 100% 29.88 in 10.0 mi WNW 6.9 mph - 0.00 in   Overcast
3:35 AM 51.8 °F 51.8 °F 100% 29.88 in 9.0 mi WNW 3.5 mph - 0.00 in   Overcast
3:55 AM 51.8 °F 51.8 °F 100% 29.88 in 9.0 mi WNW 5.8 mph - 0.00 in   Overcast
4:15 AM 51.8 °F 51.8 °F 100% 29.88 in 6.0 mi WNW 4.6 mph - 0.00 in   Overcast
4:35 AM 51.8 °F 51.8 °F 100% 29.87 in 5.0 mi WNW 4.6 mph - 0.00 in   Overcast
4:55 AM 51.8 °F 51.8 °F 100% 29.87 in 5.0 mi West 4.6 mph - 0.00 in   Overcast
5:15 AM 51.8 °F 51.8 °F 100% 29.88 in 5.0 mi WNW 5.8 mph - 0.00 in   Overcast
5:35 AM 51.8 °F 51.8 °F 100% 29.88 in 8.0 mi NW 5.8 mph - 0.00 in   Overcast
5:55 AM 51.8 °F 51.8 °F 100% 29.88 in 8.0 mi NW 4.6 mph - 0.00 in   Overcast
6:15 AM 51.8 °F 51.8 °F 100% 29.88 in 10.0 mi NW 4.6 mph - 0.00 in   Overcast
6:35 AM 51.8 °F 51.8 °F 100% 29.88 in 10.0 mi WSW 4.6 mph - 0.00 in   Overcast
6:50 AM 53.6 °F 53.6 °F 100% 29.89 in 8.0 mi WNW 5.8 mph - N/A   Mostly Cloudy
6:55 AM 51.8 °F 51.8 °F 100% 29.88 in 10.0 mi West 5.8 mph - 0.00 in   Mostly Cloudy
7:30 AM 53.6 °F 53.6 °F 100% 29.90 in 8.0 mi West 5.8 mph - N/A   Overcast
7:50 AM 53.6 °F 53.6 °F 100% 29.90 in 8.0 mi WNW 4.6 mph - N/A   Overcast
8:50 AM 55.4 °F 55.4 °F 100% 29.91 in 4.0 mi NNW 6.9 mph - N/A Rain Light Rain
9:25 AM 55.4 °F 55.4 °F 100% 29.92 in 2.0 mi NW 6.9 mph - N/A Rain Light Rain
9:50 AM 55.4 °F 55.4 °F 100% 29.92 in 10.0 mi NNW 9.2 mph - N/A   Overcast
10:50 AM 57.2 °F 57.2 °F 100% 29.91 in 10.0 mi NNW 9.2 mph - N/A   Overcast
11:50 AM 57.2 °F 55.4 °F 94% 29.92 in 10.0 mi North 11.5 mph - N/A   Overcast
12:50 PM 60.8 °F 57.2 °F 88% 29.91 in 10.0 mi North 11.5 mph - N/A   Mostly Cloudy
1:50 PM 60.8 °F 55.4 °F 82% 29.92 in 9.0 mi North 5.8 mph - N/A   Mostly Cloudy
2:50 PM 60.8 °F 57.2 °F 88% 29.91 in 10.0 mi North 13.8 mph - N/A   Overcast
3:50 PM 60.8 °F 57.2 °F 88% 29.90 in 10.0 mi NNW 8.1 mph - N/A   Mostly Cloudy
4:50 PM 62.6 °F 57.2 °F 82% 29.90 in 10.0 mi NW 12.7 mph - N/A   Overcast
5:50 PM 60.8 °F 57.2 °F 88% 29.92 in 10.0 mi North 5.8 mph - N/A   Mostly Cloudy
6:58 PM 60.8 °F 57.2 °F 88% 29.92 in 10.0 mi WNW 5.8 mph - N/A   Mostly Cloudy
7:55 PM 59.0 °F 59.0 °F 100% 29.94 in 10.0 mi West 5.8 mph - N/A   Mostly Cloudy
9:15 PM 57.2 °F 57.2 °F 100% 29.95 in 9.0 mi West 4.6 mph - 0.00 in   Mostly Cloudy
9:35 PM 57.2 °F 57.2 °F 100% 29.95 in 10.0 mi West 5.8 mph - 0.00 in   Mostly Cloudy
9:55 PM 57.2 °F 57.2 °F 100% 29.96 in 10.0 mi West 6.9 mph - 0.00 in   Overcast
10:15 PM 55.4 °F 55.4 °F 100% 29.96 in 10.0 mi WNW 6.9 mph - 0.00 in   Scattered Clouds
10:35 PM 55.4 °F 55.4 °F 100% 29.96 in 10.0 mi West 4.6 mph - 0.00 in   Mostly Cloudy
10:55 PM 55.4 °F 55.4 °F 100% 29.96 in 8.0 mi West 3.5 mph - 0.00 in   Scattered Clouds
11:15 PM 55.4 °F 55.4 °F 100% 29.96 in 7.0 mi West 5.8 mph - 0.00 in   Partly Cloudy
11:35 PM 55.4 °F 55.4 °F 100% 29.97 in 7.0 mi West 6.9 mph - 0.00 in   Clear
11:55 PM 55.4 °F 55.4 °F 100% 29.96 in 8.0 mi West 4.6 mph - 0.00 in   Partly Cloudy